CMP237 MGGT-MROC

Flight info

Callsign CMP237
Flight time N/A
Altitude 39000
Route VILDA2 KAPAN UG436 LIB BARRA3L
Aircraft B738/M-SDE2E3FGHIRWXY/LB1

Departure

Time 2026-04-30 21:33
Airport La Aurora International Airport (MGGT)

Arrival

Time N/A
Airport Juan Santamaría International Airport (MROC)
Time Latitude Longitude Altitude Speed Heading
2026-04-30 21:24 14.58866 -90.52823 4929 ft 2 kts 274°
2026-04-30 21:24 14.58867 -90.52806 4930 ft 2 kts 248°
2026-04-30 21:24 14.58877 -90.52793 4927 ft 2 kts 214°
2026-04-30 21:24 14.58891 -90.52785 4928 ft 2 kts 202°
2026-04-30 21:25 14.58916 -90.52776 4931 ft 1 kts 196°
2026-04-30 21:27 14.58860 -90.52785 4928 ft 9 kts 178°
2026-04-30 21:27 14.58809 -90.52751 4928 ft 9 kts 130°
2026-04-30 21:27 14.58783 -90.52701 4928 ft 6 kts 101°
2026-04-30 21:28 14.58847 -90.52651 4932 ft 6 kts 18°
2026-04-30 21:28 14.58888 -90.52637 4934 ft 6 kts 18°
2026-04-30 21:28 14.58967 -90.52611 4937 ft 6 kts 17°
2026-04-30 21:29 14.59005 -90.52599 4940 ft 6 kts 16°
2026-04-30 21:29 14.59128 -90.52561 4946 ft 10 kts 18°
2026-04-30 21:30 14.59311 -90.52501 4948 ft 14 kts 17°
2026-04-30 21:31 14.59562 -90.52419 4959 ft 5 kts 17°
2026-04-30 21:31 14.59591 -90.52364 4960 ft 5 kts 107°
2026-04-30 21:32 14.59464 -90.52377 4958 ft 41 kts 198°
2026-04-30 21:32 14.58974 -90.52539 4941 ft 105 kts 198°
2026-04-30 21:32 14.58108 -90.52816 4922 ft 156 kts 197°
2026-04-30 21:32 14.57005 -90.53205 5315 ft 173 kts 199°
2026-04-30 21:33 14.55808 -90.53646 5838 ft 193 kts 198°
2026-04-30 21:33 14.53093 -90.53656 6783 ft 207 kts 163°
2026-04-30 21:33 14.51695 -90.53274 7315 ft 211 kts 168°
2026-04-30 21:34 14.50227 -90.52943 7784 ft 219 kts 168°
2026-04-30 21:34 14.47166 -90.52291 8870 ft 236 kts 167°
2026-04-30 21:34 14.45502 -90.51946 9419 ft 251 kts 167°
2026-04-30 21:35 14.43742 -90.51586 9945 ft 265 kts 167°
2026-04-30 21:35 14.41880 -90.51207 10420 ft 279 kts 168°
2026-04-30 21:35 14.39922 -90.50815 10927 ft 294 kts 167°
2026-04-30 21:35 14.37855 -90.50405 11418 ft 308 kts 167°
2026-04-30 21:36 14.35726 -90.49983 11901 ft 321 kts 166°
2026-04-30 21:36 14.33483 -90.49539 12399 ft 334 kts 167°
2026-04-30 21:37 14.26304 -90.48127 13901 ft 362 kts 166°
2026-04-30 21:37 14.23807 -90.47635 14373 ft 367 kts 166°
2026-04-30 21:37 14.21280 -90.47139 14782 ft 369 kts 166°
2026-04-30 21:37 14.18744 -90.46639 15261 ft 372 kts 166°
2026-04-30 21:38 14.16197 -90.46139 15706 ft 373 kts 166°
2026-04-30 21:38 14.13737 -90.45357 16171 ft 368 kts 148°
2026-04-30 21:38 14.11779 -90.43771 16664 ft 361 kts 129°
2026-04-30 21:38 14.10349 -90.41674 17169 ft 357 kts 114°
2026-04-30 21:39 14.09477 -90.39303 17667 ft 355 kts 102°
2026-04-30 21:39 14.09218 -90.36770 18176 ft 358 kts 86°
2026-04-30 21:39 14.09514 -90.34211 18652 ft 361 kts 81°
2026-04-30 21:39 14.09907 -90.31638 19092 ft 365 kts 81°
2026-04-30 21:40 14.10331 -90.29043 19568 ft 368 kts 80°
2026-04-30 21:40 14.10763 -90.26459 20019 ft 370 kts 80°
2026-04-30 21:40 14.11204 -90.23841 20493 ft 372 kts 80°
2026-04-30 21:40 14.11458 -90.21171 20953 ft 375 kts 91°
2026-04-30 21:41 14.11101 -90.18506 21446 ft 377 kts 102°
2026-04-30 21:41 14.10277 -90.15929 21933 ft 381 kts 111°
2026-04-30 21:41 14.09157 -90.13451 22434 ft 381 kts 112°